STARLINK-30706, 57947

Orbit data source: Space-Track

STARLINK-30706, 57947 is a payload satellite owned by SpaceX/Seattle (US) in LEO that was launched on Mon, 25 Sep 2023 UTC via an FALCON 9 launch vehicle from the Air Force Western Test Range (AFWTR). Payload-class satellites include a variety of spacecraft equipped with specific instruments for various scientific and technological missions. These include communications satellites like Starlink; space stations such as the ISS; scientific satellites like the Hubble; Earth observation satellites from companies like Planet Labs, Umbra, and HawkEye 360; GPS; miniature CubeSats for education and research; and military/defense satellites.

Loading next visibility...
Identifier
57947, 2023-148N
Orbit
LEO
Country
Flag of USUS
Related business
Manufacturer
SpaceX/Seattle
Mission
Operational Commercial Communications
Bus & Motor
STARLINK V2M, Unknown motor
Mass
730 kg wet, ~700 kg dry
Launch date (UTC)
2023-09-25 (3 years ago)
Launch vehicle
FALCON 9
Launch site
Air Force Western Test Range (AFWTR)
Object type
Payload
Rocket body
Debris
Shape & HBR
Box + 2 Pan, 17.7 m
Radar Cross Section
33.884 m², Large (>1 m²)

Expand to show TLE details & history
Last TLE update: 3 days ago

TLE from 3 days ago
0 STARLINK-30706
1 57947U 23148N   26170.54426004  .00000235  00000-0  18092-4 0  9995
2 57947  53.1604 269.9774 0001191  81.6466 278.4672 15.34392336154038
Epoch: 2026-06-19T13:03Z
TLE epoch observation values (Epoch: 2026-06-19T13:03:44.067Z)
Latitude
0.00001°
Longitude
166.27208°
Altitude
463.508 km
Speed
7.636 km/s
True Right ascension
17h 59m 54s
True Declination
0° 00' 00"
Sunlit
Object was in full shadow at epoch
Visualization orbit readout
Latitude
Unknown
Longitude
Unknown
Altitude
Unknown
Speed
Unknown
Apparent Right ascension
Unknown
Apparent Declination
Unknown
Sunlit
N/A
Visualization observer readout
Local Sidereal Time
21:28:49
Azimuth
Unknown
Elevation
Unknown
Doppler factor
Unknown
Orbital elements
Apogee altitude
463.798 km
Perigee altitude
462.168 km
Semi-major axis
6,841.12 km
Eccentricity
0.00012
Inclination
53.1604°
RAAN
269.9774°
Arg. of periapsis
81.6466°
True anomaly
278.4537°
Mean anomaly
278.4672°
Eccentric anomaly
278.46045°
Mean motion
3.83577 °/min
Orbital period
93.85 mins
BSTAR
0.000018092
Loading maneuver chart data...
Computing Atmospheric mass density...
Loading historical data...
Loading historical data...
Loading historical data...
Loading historical data...
Loading historical data...
Loading historical data...
Loading historical data...

Documentation

Showing up to 5 results
|